| time (UTC) | temp F | wind direction | speed MPH | gust MPH | rain 1hr in | rain 24hr in | rain mn in | humidity % | barometer mb |
| 20260905043051 | 78 | 132 | 0.0 | 1.0 | 0.00 | 0.00 | 0.00 | 43 | 1002.4 |
| 20260905041540 | 78 | 134 | 0.0 | 0.0 | 0.00 | 0.00 | 0.00 | 44 | 1002.6 |
| 20260905040044 | 77 | 135 | 0.0 | 1.0 | 0.00 | 0.00 | 0.00 | 44 | 1002.7 |
| 20260905034540 | 77 | 136 | 0.0 | 0.0 | 0.00 | 0.00 | 0.00 | 45 | 1002.9 |
| 20260905033040 | 78 | 136 | 0.0 | 0.0 | 0.00 | 0.00 | 0.00 | 45 | 1002.8 |
| 20260905031545 | 78 | 136 | 0.0 | 0.0 | 0.00 | 0.00 | 0.00 | 43 | 1002.8 |
| 20260905030038 | 79 | 74 | 0.0 | 0.0 | 0.00 | 0.00 | 0.00 | 39 | 1002.8 |
| 20260905024539 | 80 | 74 | 0.0 | 0.0 | 0.00 | 0.00 | 0.00 | 39 | 1002.4 |
| 20260905023038 | 81 | 74 | 0.0 | 0.0 | 0.00 | 0.00 | 0.00 | 37 | 1002.1 |
| 20260905021538 | 82 | 74 | 0.0 | 0.0 | 0.00 | 0.00 | 0.00 | 37 | 1001.8 |
| 20260905020046 | 84 | 74 | 0.0 | 0.0 | 0.00 | 0.00 | 0.00 | 34 | 1001.4 |
| 20260905014536 | 86 | 74 | 0.0 | 1.0 | 0.00 | 0.00 | 0.00 | 32 | 1001.3 |
| 20260905013046 | 88 | 74 | 0.0 | 1.0 | 0.00 | 0.00 | 0.00 | 30 | 1001.1 |
| 20260905011603 | 90 | 74 | 0.0 | 0.0 | 0.00 | 0.00 | 0.00 | 28 | 1001.0 |
| 20260905010034 | 92 | 74 | 0.0 | 1.0 | 0.00 | 0.00 | 0.00 | 29 | 1000.7 |
| 20260905004534 | 94 | 74 | 0.0 | 1.0 | 0.00 | 0.00 | 0.00 | 29 | 1000.5 |
| 20260905003036 | 95 | 74 | 0.0 | 1.0 | 0.00 | 0.00 | 0.00 | 28 | 1000.6 |
| 20260905001532 | 96 | 74 | 0.0 | 1.0 | 0.00 | 0.00 | 0.00 | 27 | 1000.6 |
| 20260905000031 | 97 | 74 | 0.0 | 1.0 | 0.00 | 0.00 | 0.00 | 25 | 1000.6 |
| 20260904234530 | 98 | 74 | 0.0 | 1.0 | 0.00 | 0.00 | 0.00 | 24 | 1000.7 |
| 20260904233030 | 99 | 74 | 0.0 | 1.0 | 0.00 | 0.00 | 0.00 | 24 | 1000.6 |
| 20260904231529 | 99 | 74 | 0.0 | 2.0 | 0.00 | 0.00 | 0.00 | 24 | 1000.5 |
| 20260904230029 | 98 | 82 | 0.0 | 3.0 | 0.00 | 0.00 | 0.00 | 25 | 1000.4 |
| 20260904224527 | 99 | 112 | 0.0 | 2.0 | 0.00 | 0.00 | 0.00 | 22 | 1000.5 |
| 20260904223028 | 99 | 115 | 0.0 | 1.0 | 0.00 | 0.00 | 0.00 | 23 | 1000.6 |
| 20260904221527 | 99 | 176 | 0.0 | 2.0 | 0.00 | 0.00 | 0.00 | 23 | 1000.6 |
| 20260904220026 | 98 | 182 | 0.0 | 1.0 | 0.00 | 0.00 | 0.00 | 23 | 1000.8 |
| 20260904214525 | 99 | 182 | 0.0 | 1.0 | 0.00 | 0.00 | 0.00 | 23 | 1000.9 |
| 20260904213024 | 100 | 182 | 0.0 | 1.0 | 0.00 | 0.00 | 0.00 | 21 | 1001.1 |
| 20260904211521 | 99 | 184 | 0.0 | 2.0 | 0.00 | 0.00 | 0.00 | 24 | 1001.1 |
| 20260904210026 | 98 | 185 | 1.0 | 3.0 | 0.00 | 0.00 | 0.00 | 21 | 1001.5 |
| 20260904204516 | 97 | 173 | 0.0 | 1.0 | 0.00 | 0.00 | 0.00 | 24 | 1001.6 |
| 20260904203018 | 96 | 33 | 0.0 | 3.0 | 0.00 | 0.00 | 0.00 | 26 | 1002.0 |
| 20260904201513 | 96 | 20 | 0.0 | 2.0 | 0.00 | 0.00 | 0.00 | 21 | 1002.0 |
| 20260904200014 | 96 | 19 | 0.0 | 3.0 | 0.00 | 0.00 | 0.00 | 24 | 1002.3 |
| 20260904194508 | 95 | 15 | 0.0 | 3.0 | 0.00 | 0.00 | 0.00 | 26 | 1002.4 |
| 20260904193008 | 95 | 13 | 0.0 | 1.0 | 0.00 | 0.00 | 0.00 | 26 | 1002.6 |
| 20260904191505 | 94 | 13 | 0.0 | 1.0 | 0.00 | 0.00 | 0.00 | 26 | 1002.7 |
| 20260904190004 | 94 | 13 | 0.0 | 2.0 | 0.00 | 0.00 | 0.00 | 25 | 1003.0 |
| 20260904184559 | 93 | 13 | 0.0 | 1.0 | 0.00 | 0.00 | 0.00 | 28 | 1003.3 |
| 20260904183112 | 92 | 14 | 0.0 | 1.0 | 0.00 | 0.00 | 0.00 | 25 | 1003.5 |
| 20260904181606 | 92 | 18 | 0.0 | 1.0 | 0.00 | 0.00 | 0.00 | 25 | 1003.7 |
| 20260904180050 | 90 | 19 | 0.0 | 1.0 | 0.00 | 0.00 | 0.00 | 29 | 1004.0 |
| 20260904174545 | 88 | 18 | 0.0 | 3.0 | 0.00 | 0.00 | 0.00 | 29 | 1004.0 |
| 20260904173041 | 86 | 18 | 0.0 | 1.0 | 0.00 | 0.00 | 0.00 | 29 | 1004.1 |
| 20260904171540 | 84 | 17 | 0.0 | 4.0 | 0.00 | 0.00 | 0.00 | 31 | 1004.2 |
| 20260904170033 | 83 | 18 | 0.0 | 2.0 | 0.00 | 0.00 | 0.00 | 38 | 1004.3 |
| 20260904164529 | 81 | 18 | 0.0 | 3.0 | 0.00 | 0.00 | 0.00 | 36 | 1004.3 |
| 20260904163025 | 79 | 19 | 0.0 | 1.0 | 0.00 | 0.00 | 0.00 | 38 | 1004.3 |
| 20260904161520 | 77 | 19 | 0.0 | 1.0 | 0.00 | 0.00 | 0.00 | 37 | 1004.4 |
| 20260904160016 | 75 | 19 | 0.0 | 1.0 | 0.00 | 0.00 | 0.00 | 41 | 1004.5 |
| 20260904154514 | 73 | 19 | 0.0 | 1.0 | 0.00 | 0.00 | 0.00 | 42 | 1004.5 |
| 20260904153017 | 71 | 19 | 0.0 | 2.0 | 0.00 | 0.00 | 0.00 | 48 | 1004.7 |
| 20260904151509 | 68 | 19 | 0.0 | 0.0 | 0.00 | 0.00 | 0.00 | 56 | 1004.6 |
| 20260904150008 | 67 | 19 | 0.0 | 1.0 | 0.00 | 0.00 | 0.00 | 58 | 1004.7 |
| 20260904144508 | 65 | 19 | 0.0 | 0.0 | 0.00 | 0.00 | 0.00 | 62 | 1004.8 |
| 20260904143007 | 64 | 19 | 0.0 | 2.0 | 0.00 | 0.00 | 0.00 | 62 | 1004.5 |
| 20260904141507 | 62 | 19 | 0.0 | 1.0 | 0.00 | 0.00 | 0.00 | 64 | 1004.4 |
| 20260904140003 | 60 | 19 | 0.0 | 3.0 | 0.00 | 0.00 | 0.00 | 69 | 1004.2 |
| 20260904134606 | 59 | 19 | 0.0 | 1.0 | 0.00 | 0.00 | 0.00 | 71 | 1003.8 |
| 20260904134500 | 59 | 19 | 0.0 | 1.0 | 0.00 | 0.00 | 0.00 | 71 | 1003.8 |
| 20260904133059 | 57 | 19 | 0.0 | 1.0 | 0.00 | 0.00 | 0.00 | 72 | 1003.5 |
| 20260904131559 | 57 | 19 | 0.0 | 0.0 | 0.00 | 0.00 | 0.00 | 72 | 1003.5 |
| 20260904130055 | 56 | 19 | 0.0 | 1.0 | 0.00 | 0.00 | 0.00 | 72 | 1003.3 |
| 20260904124552 | 57 | 19 | 0.0 | 2.0 | 0.00 | 0.00 | 0.00 | 71 | 1003.0 |
| 20260904123049 | 57 | 19 | 0.0 | 1.0 | 0.00 | 0.00 | 0.00 | 69 | 1002.7 |
| 20260904121545 | 58 | 19 | 0.0 | 0.0 | 0.00 | 0.00 | 0.00 | 68 | 1002.6 |
| 20260904120048 | 59 | 19 | 0.0 | 0.0 | 0.00 | 0.00 | 0.00 | 68 | 1002.5 |
| 20260904114539 | 60 | 19 | 0.0 | 0.0 | 0.00 | 0.00 | 0.00 | 66 | 1002.5 |
| 20260904113042 | 61 | 19 | 0.0 | 0.0 | 0.00 | 0.00 | 0.00 | 65 | 1002.5 |
| 20260904111532 | 61 | 19 | 0.0 | 0.0 | 0.00 | 0.00 | 0.00 | 63 | 1002.2 |
| 20260904110031 | 62 | 19 | 0.0 | 1.0 | 0.00 | 0.00 | 0.00 | 61 | 1001.9 |
| 20260904104547 | 62 | 19 | 0.0 | 2.0 | 0.00 | 0.00 | 0.00 | 61 | 1002.0 |
| 20260904103027 | 62 | 18 | 0.0 | 1.0 | 0.00 | 0.00 | 0.00 | 62 | 1001.8 |
| 20260904094525 | 63 | 18 | 0.0 | 0.0 | 0.00 | 0.00 | 0.00 | 60 | 1001.3 |
| 20260904093019 | 63 | 18 | 0.0 | 0.0 | 0.00 | 0.00 | 0.00 | 60 | 1001.2 |
| 20260904091515 | 63 | 18 | 0.0 | 2.0 | 0.00 | 0.00 | 0.00 | 59 | 1001.0 |
| 20260904090015 | 64 | 18 | 0.0 | 1.0 | 0.00 | 0.00 | 0.00 | 57 | 1001.0 |
| 20260904084511 | 64 | 18 | 0.0 | 2.0 | 0.00 | 0.00 | 0.00 | 57 | 1001.0 |
| 20260904083014 | 65 | 18 | 0.0 | 1.0 | 0.00 | 0.00 | 0.00 | 55 | 1000.9 |
| 20260904081506 | 66 | 18 | 1.0 | 2.0 | 0.00 | 0.00 | 0.00 | 53 | 1000.7 |
| 20260904080001 | 67 | 18 | 0.0 | 2.0 | 0.00 | 0.00 | 0.00 | 52 | 1000.8 |
| 20260904074603 | 67 | 17 | 0.0 | 4.0 | 0.00 | 0.00 | 0.00 | 52 | 1000.6 |
| 20260904073101 | 68 | 16 | 0.0 | 3.0 | 0.00 | 0.00 | 0.00 | 51 | 1000.7 |
| 20260904071605 | 68 | 14 | 0.0 | 3.0 | 0.00 | 0.00 | 0.00 | 49 | 1000.7 |
| 20260904070050 | 70 | 13 | 0.0 | 2.0 | 0.00 | 0.00 | 0.00 | 47 | 1000.6 |
| 20260904064546 | 71 | 13 | 0.0 | 1.0 | 0.00 | 0.00 | 0.00 | 46 | 1000.6 |
| 20260904063044 | 71 | 13 | 0.0 | 2.0 | 0.00 | 0.00 | 0.00 | 47 | 1001.0 |
| 20260904061541 | 72 | 13 | 0.0 | 0.0 | 0.00 | 0.00 | 0.00 | 48 | 1000.5 |
| 20260904060038 | 73 | 13 | 0.0 | 0.0 | 0.00 | 0.00 | 0.00 | 46 | 1000.4 |
| 20260904054541 | 73 | 13 | 0.0 | 1.0 | 0.00 | 0.00 | 0.00 | 45 | 1000.4 |
| 20260904053040 | 74 | 13 | 0.0 | 1.0 | 0.00 | 0.00 | 0.00 | 44 | 1000.5 |
| 20260904051537 | 75 | 13 | 0.0 | 0.0 | 0.00 | 0.00 | 0.00 | 42 | 1000.5 |
| 20260904050037 | 76 | 13 | 0.0 | 0.0 | 0.00 | 0.00 | 0.00 | 41 | 1000.7 |
| 20260904044535 | 77 | 13 | 0.0 | 1.0 | 0.00 | 0.00 | 0.00 | 40 | 1000.7 |